Flag for France Weather past 2 weeks in Royan, France

Now
39 °F

Clear.


Feels Like: 39 °F
Forecast: 43 / 50 °F
Wind: No wind

Location: Cognac Airport

Current Time: Dec 21, 2014 at 9:48:57 AM

Latest Report: Dec 21, 2014 at 9:00 AM


Visibility: N/A

Pressure: 30.63 "Hg

Humidity: 93%

Dew point: 37 °F

Location of RoyanLocation

Historic Weather in Royan — Graph

°F

Royan temperature yesterday

Maximum temperature yesterday: 55 °F (at 12:30 AM)
Minimum temperature yesterday: 46 °F (at 7:00 PM)
Average temperature yesterday: 50 °F

Past Weeks' High & Low Weather Summary

 TemperatureHumidityPressure
High57 °F (Dec 18, 1:30 PM)100% (Dec 7, 6:00 AM)30.63 "Hg (Dec 7, 6:00 AM)
Low27 °F (Dec 7, 7:30 AM)54% (Dec 20, 2:30 PM)29.77 "Hg (Dec 13, 1:30 AM)
Average47 °F86%30.23 "Hg
* Reported Dec 6 8:00 AM — Dec 21 8:30 AM, Royan, Weather by CustomWeather, © 2014

Note: Actual official high and low records may vary slightly from our data, if they occured in-between our weather recording intervals... More about our weather records

Advertising

Royan weather history for previous 24 hours

 ConditionsComfort  
Time TempWeatherWind HumidityBarometerVisibility
8:30 AM
Dec 21
41 °FPassing clouds.No wind87%30.63 "HgN/A
8:00 AM41 °FPassing clouds.No wind87%30.63 "HgN/A
7:30 AM41 °FPassing clouds.No wind87%30.63 "HgN/A
7:00 AM43 °FPassing clouds.No wind87%30.63 "HgN/A
6:30 AM45 °FOvercast.1 mph81%30.63 "HgN/A
6:00 AM45 °FOvercast.No wind81%30.63 "HgN/A
5:30 AM45 °FOvercast.No wind81%30.63 "HgN/A
5:00 AM45 °FOvercast.2 mph81%30.63 "HgN/A
4:30 AM45 °FOvercast.2 mph81%30.63 "HgN/A
4:00 AM45 °FOvercast.No wind81%30.63 "HgN/A
3:30 AM45 °FOvercast.No wind81%30.63 "HgN/A
3:00 AM46 °FOvercast.1 mph76%30.63 "HgN/A
2:30 AM46 °FOvercast.1 mph76%30.63 "HgN/A
2:00 AM45 °FOvercast.No wind81%30.63 "HgN/A
1:30 AM46 °FOvercast.No wind76%30.63 "HgN/A
1:00 AM46 °FOvercast.No wind76%30.63 "HgN/A
12:30 AM46 °FOvercast.No wind76%30.63 "HgN/A
12:00 AM46 °FOvercast.No wind76%30.63 "HgN/A
11:30 PM
Dec 20
46 °FOvercast.2 mph71%30.63 "HgN/A
11:00 PM46 °FOvercast.1 mph71%30.63 "HgN/A
10:30 PM46 °FOvercast.2 mph71%30.63 "HgN/A
10:00 PM46 °FOvercast.2 mph71%30.63 "HgN/A
9:30 PM46 °FOvercast.2 mph71%30.63 "HgN/A
9:00 PM46 °FOvercast.No wind71%30.63 "HgN/A
8:30 PM46 °FOvercast.2 mph71%30.60 "HgN/A
8:00 PM46 °FOvercast.2 mph66%30.60 "HgN/A
7:30 PM48 °FOvercast.3 mph66%30.60 "HgN/A
7:00 PM46 °FOvercast.2 mph71%30.60 "HgN/A
6:30 PM48 °FOvercast.2 mph66%30.57 "HgN/A
6:00 PM48 °FOvercast.3 mph66%30.57 "HgN/A
5:30 PM50 °FOvercast.7 mph62%30.57 "HgN/A
5:00 PM50 °FOvercast.7 mph58%30.54 "HgN/A
4:30 PM50 °FOvercast.8 mph58%30.54 "HgN/A
4:00 PM52 °FOvercast.10 mph54%30.54 "HgN/A
3:30 PM52 °FPartly sunny.14 mph54%30.54 "HgN/A
3:00 PM52 °FScattered clouds.10 mph58%30.54 "HgN/A
2:30 PM52 °FOvercast.10 mph54%30.54 "HgN/A
2:00 PM52 °FOvercast.12 mph58%30.54 "HgN/A
1:30 PM52 °FOvercast.13 mph58%30.54 "HgN/A
1:00 PM52 °FPartly sunny.13 mph58%30.54 "HgN/A
12:30 PM52 °FPassing clouds.10 mph62%30.54 "HgN/A
12:00 PM52 °FClear.7 mph62%30.54 "HgN/A
11:30 AM52 °FClear.9 mph67%30.54 "HgN/A
11:00 AM52 °FPassing clouds.7 mph72%30.54 "HgN/A
10:30 AM50 °FScattered clouds.3 mph88%30.54 "HgN/A
10:00 AM48 °FPartly sunny.3 mph94%30.51 "HgN/A
9:30 AM48 °FOvercast.5 mph94%30.51 "HgN/A
9:00 AM48 °FMostly cloudy.7 mph94%30.51 "HgN/A
Weather by CustomWeather, © 2014

See weather overviewHow to use our weather pages